{"data":{"norad_id":66335,"epoch":"2026-05-25T01:23:58.091136Z","epoch_age_seconds":73554,"freshness":"FRESH","line1":"1 66335U 25253S   26145.05831124  .00016191  00000+0  59640-3 0  9996","line2":"2 66335  42.9985 141.2509 0001121 231.3438 128.7313 15.27591224 31921","mean_motion":15.27591224,"eccentricity":0.0001121,"inclination_deg":42.9985,"raan_deg":141.2509,"arg_perigee_deg":231.3438,"mean_anomaly_deg":128.7313,"bstar":0.0005964,"rev_number":3192,"period_min":94.266056087266,"perigee_km":482.24635235777,"apogee_km":483.78462274548,"semimajor_km":6861.1524875516,"source":"CELESTRAK","updated_at":"2026-05-25T13:38:21.169945Z"}}